Year,Month,Day,Hour,Minute,Value (Times are PST for barometer in hPa)
2015,12,09,00,00,991.23
2015,12,09,00,01,991.26
2015,12,09,00,02,991.26
2015,12,09,00,03,991.19
2015,12,09,00,04,991.03
2015,12,09,00,05,991.03
2015,12,09,00,06,990.89
2015,12,09,00,07,990.93
2015,12,09,00,08,990.89
2015,12,09,00,09,990.86
2015,12,09,00,10,990.86
2015,12,09,00,11,990.86
2015,12,09,00,12,990.76
2015,12,09,00,13,990.72
2015,12,09,00,14,990.86
2015,12,09,00,15,991.03
2015,12,09,00,16,991.08
2015,12,09,00,17,990.85
2015,12,09,00,18,990.59
2015,12,09,00,19,990.49
2015,12,09,00,20,990.79
2015,12,09,00,21,990.99
2015,12,09,00,22,990.89
2015,12,09,00,23,990.76
2015,12,09,00,24,990.76
2015,12,09,00,25,990.76
2015,12,09,00,26,990.79
2015,12,09,00,27,990.76
2015,12,09,00,28,990.72
2015,12,09,00,29,990.76
2015,12,09,00,30,990.82
2015,12,09,00,31,990.86
2015,12,09,00,32,990.96
2015,12,09,00,33,991.03
2015,12,09,00,34,991.06
2015,12,09,00,35,991.09
2015,12,09,00,36,991.09
2015,12,09,00,37,991.09
2015,12,09,00,38,991.05
2015,12,09,00,39,990.96
2015,12,09,00,40,990.89
2015,12,09,00,41,990.89
2015,12,09,00,42,990.86
2015,12,09,00,43,990.79
2015,12,09,00,44,990.82
2015,12,09,00,45,990.82
2015,12,09,00,46,990.79
2015,12,09,00,47,990.79
2015,12,09,00,48,990.76
2015,12,09,00,49,990.76
2015,12,09,00,50,990.72
2015,12,09,00,51,990.76
2015,12,09,00,52,990.72
2015,12,09,00,53,990.72
2015,12,09,00,54,990.69
2015,12,09,00,55,990.62
2015,12,09,00,56,990.62
2015,12,09,00,57,990.65
2015,12,09,00,58,990.69
2015,12,09,00,59,990.72
2015,12,09,01,00,990.65
2015,12,09,01,01,990.62
2015,12,09,01,02,990.55
2015,12,09,01,03,990.59
2015,12,09,01,04,990.49
2015,12,09,01,05,990.55
2015,12,09,01,06,990.49
2015,12,09,01,07,990.49
2015,12,09,01,08,990.45
2015,12,09,01,09,990.49
2015,12,09,01,10,990.55
2015,12,09,01,11,990.55
2015,12,09,01,12,990.49
2015,12,09,01,13,990.45
2015,12,09,01,14,990.42
2015,12,09,01,15,990.42
2015,12,09,01,16,990.38
2015,12,09,01,17,990.42
2015,12,09,01,18,990.42
2015,12,09,01,19,990.35
2015,12,09,01,20,990.42
2015,12,09,01,21,990.38
2015,12,09,01,22,990.49
2015,12,09,01,23,990.52
2015,12,09,01,24,990.59
2015,12,09,01,25,990.62
2015,12,09,01,26,990.69
2015,12,09,01,27,990.76
2015,12,09,01,28,990.79
2015,12,09,01,29,990.82
2015,12,09,01,30,990.69
2015,12,09,01,31,990.62
2015,12,09,01,32,990.52
2015,12,09,01,33,990.52
2015,12,09,01,34,990.52
2015,12,09,01,35,990.55
2015,12,09,01,36,990.65
2015,12,09,01,37,990.69
2015,12,09,01,38,990.72
2015,12,09,01,39,990.76
2015,12,09,01,40,990.65
2015,12,09,01,41,990.59
2015,12,09,01,42,990.59
2015,12,09,01,43,990.55
2015,12,09,01,44,990.52
2015,12,09,01,45,990.52
2015,12,09,01,46,990.49
2015,12,09,01,47,990.42
2015,12,09,01,48,990.38
2015,12,09,01,49,990.35
2015,12,09,01,50,990.35
2015,12,09,01,51,990.35
2015,12,09,01,52,990.35
2015,12,09,01,53,990.35
2015,12,09,01,54,990.42
2015,12,09,01,55,990.45
2015,12,09,01,56,990.42
2015,12,09,01,57,990.38
2015,12,09,01,58,990.32
2015,12,09,01,59,990.28
2015,12,09,02,00,990.28
2015,12,09,02,01,990.32
2015,12,09,02,02,990.35
2015,12,09,02,03,990.42
2015,12,09,02,04,990.52
2015,12,09,02,05,990.52
2015,12,09,02,06,990.55
2015,12,09,02,07,990.59
2015,12,09,02,08,990.59
2015,12,09,02,09,990.59
2015,12,09,02,10,990.59
2015,12,09,02,11,990.62
2015,12,09,02,12,990.62
2015,12,09,02,13,990.59
2015,12,09,02,14,990.59
2015,12,09,02,15,990.55
2015,12,09,02,16,990.52
2015,12,09,02,17,990.45
2015,12,09,02,18,990.42
2015,12,09,02,19,990.42
2015,12,09,02,20,990.32
2015,12,09,02,21,990.32
2015,12,09,02,22,990.28
2015,12,09,02,23,990.28
2015,12,09,02,24,990.32
2015,12,09,02,25,990.21
2015,12,09,02,26,990.11
2015,12,09,02,27,990.03
2015,12,09,02,28,989.94
2015,12,09,02,29,989.91
2015,12,09,02,30,989.81
2015,12,09,02,31,989.77
2015,12,09,02,32,989.84
2015,12,09,02,33,989.88
2015,12,09,02,34,989.81
2015,12,09,02,35,989.81
2015,12,09,02,36,989.89
2015,12,09,02,37,989.98
2015,12,09,02,38,990.04
2015,12,09,02,39,990.01
2015,12,09,02,40,989.91
2015,12,09,02,41,989.84
2015,12,09,02,42,989.74
2015,12,09,02,43,989.54
2015,12,09,02,44,989.44
2015,12,09,02,45,989.40
2015,12,09,02,46,989.47
2015,12,09,02,47,989.50
2015,12,09,02,48,989.64
2015,12,09,02,49,989.67
2015,12,09,02,50,989.81
2015,12,09,02,51,989.91
2015,12,09,02,52,990.01
2015,12,09,02,53,990.02
2015,12,09,02,54,990.16
2015,12,09,02,55,990.28
2015,12,09,02,56,990.20
2015,12,09,02,57,989.98
2015,12,09,02,58,990.04
2015,12,09,02,59,990.08
2015,12,09,03,00,990.01
2015,12,09,03,01,990.01
2015,12,09,03,02,990.04
2015,12,09,03,03,990.08
2015,12,09,03,04,990.08
2015,12,09,03,05,990.04
2015,12,09,03,06,990.01
2015,12,09,03,07,989.94
2015,12,09,03,08,989.98
2015,12,09,03,09,990.01
2015,12,09,03,10,989.94
2015,12,09,03,11,989.82
2015,12,09,03,12,989.84
2015,12,09,03,13,989.88
2015,12,09,03,14,989.88
2015,12,09,03,15,989.91
2015,12,09,03,16,989.94
2015,12,09,03,17,989.84
2015,12,09,03,18,989.84
2015,12,09,03,19,989.74
2015,12,09,03,20,989.81
2015,12,09,03,21,989.77
2015,12,09,03,22,989.81
2015,12,09,03,23,989.94
2015,12,09,03,24,989.88
2015,12,09,03,25,989.81
2015,12,09,03,26,989.71
2015,12,09,03,27,989.67
2015,12,09,03,28,989.67
2015,12,09,03,29,989.57
2015,12,09,03,30,989.67
2015,12,09,03,31,989.74
2015,12,09,03,32,989.84
2015,12,09,03,33,989.84
2015,12,09,03,34,989.84
2015,12,09,03,35,989.81
2015,12,09,03,36,989.88
2015,12,09,03,37,990.08
2015,12,09,03,38,990.04
2015,12,09,03,39,990.04
2015,12,09,03,40,990.11
2015,12,09,03,41,990.08
2015,12,09,03,42,990.11
2015,12,09,03,43,990.15
2015,12,09,03,44,990.08
2015,12,09,03,45,990.05
2015,12,09,03,46,990.21
2015,12,09,03,47,990.18
2015,12,09,03,48,990.11
2015,12,09,03,49,990.11
2015,12,09,03,50,990.15
2015,12,09,03,51,990.11
2015,12,09,03,52,990.11
2015,12,09,03,53,990.04
2015,12,09,03,54,990.01
2015,12,09,03,55,989.94
2015,12,09,03,56,990.01
2015,12,09,03,57,989.91
2015,12,09,03,58,989.98
2015,12,09,03,59,989.94
2015,12,09,04,00,990.01
2015,12,09,04,01,990.08
2015,12,09,04,02,990.11
2015,12,09,04,03,990.11
2015,12,09,04,04,990.04
2015,12,09,04,05,990.04
2015,12,09,04,06,990.15
2015,12,09,04,07,990.21
2015,12,09,04,08,990.15
2015,12,09,04,09,990.15
2015,12,09,04,10,990.18
2015,12,09,04,11,990.18
2015,12,09,04,12,990.22
2015,12,09,04,13,990.32
2015,12,09,04,14,990.28
2015,12,09,04,15,990.42
2015,12,09,04,16,990.45
2015,12,09,04,17,990.45
2015,12,09,04,18,990.52
2015,12,09,04,19,990.36
2015,12,09,04,20,990.35
2015,12,09,04,21,990.38
2015,12,09,04,22,990.35
2015,12,09,04,23,990.28
2015,12,09,04,24,990.35
2015,12,09,04,25,990.25
2015,12,09,04,26,990.42
2015,12,09,04,27,990.35
2015,12,09,04,28,990.45
2015,12,09,04,29,990.52
2015,12,09,04,30,990.69
2015,12,09,04,31,990.82
2015,12,09,04,32,990.99
2015,12,09,04,33,991.23
2015,12,09,04,34,991.50
2015,12,09,04,35,991.57
2015,12,09,04,36,991.37
2015,12,09,04,37,991.26
2015,12,09,04,38,991.26
2015,12,09,04,39,991.30
2015,12,09,04,40,991.13
2015,12,09,04,41,991.20
2015,12,09,04,42,991.26
2015,12,09,04,43,991.30
2015,12,09,04,44,991.20
2015,12,09,04,45,991.57
2015,12,09,04,46,991.47
2015,12,09,04,47,991.59
2015,12,09,04,48,991.40
2015,12,09,04,49,991.53
2015,12,09,04,50,991.60
2015,12,09,04,51,991.81
2015,12,09,04,52,991.81
2015,12,09,04,53,991.87
2015,12,09,04,54,991.84
2015,12,09,04,55,991.71
2015,12,09,04,56,991.81
2015,12,09,04,57,991.81
2015,12,09,04,58,991.77
2015,12,09,04,59,991.81
2015,12,09,05,00,991.84
2015,12,09,05,01,991.77
2015,12,09,05,02,991.74
2015,12,09,05,03,991.84
2015,12,09,05,04,991.87
2015,12,09,05,05,991.84
2015,12,09,05,06,991.74
2015,12,09,05,07,991.86
2015,12,09,05,08,991.91
2015,12,09,05,09,991.87
2015,12,09,05,10,991.91
2015,12,09,05,11,992.01
2015,12,09,05,12,991.87
2015,12,09,05,13,991.84
2015,12,09,05,14,991.77
2015,12,09,05,15,991.98
2015,12,09,05,16,992.04
2015,12,09,05,17,991.94
2015,12,09,05,18,992.01
2015,12,09,05,19,991.91
2015,12,09,05,20,991.91
2015,12,09,05,21,992.01
2015,12,09,05,22,991.98
2015,12,09,05,23,991.98
2015,12,09,05,24,992.04
2015,12,09,05,25,992.28
2015,12,09,05,26,992.01
2015,12,09,05,27,992.08
2015,12,09,05,28,992.18
2015,12,09,05,29,992.18
2015,12,09,05,30,992.18
2015,12,09,05,31,992.14
2015,12,09,05,32,992.38
2015,12,09,05,33,992.48
2015,12,09,05,34,992.45
2015,12,09,05,35,992.31
2015,12,09,05,36,992.38
2015,12,09,05,37,992.55
2015,12,09,05,38,992.62
2015,12,09,05,39,992.38
2015,12,09,05,40,992.31
2015,12,09,05,41,992.38
2015,12,09,05,42,992.42
2015,12,09,05,43,992.35
2015,12,09,05,44,992.28
2015,12,09,05,45,992.48
2015,12,09,05,46,992.52
2015,12,09,05,47,992.58
2015,12,09,05,48,992.58
2015,12,09,05,49,992.45
2015,12,09,05,50,992.52
2015,12,09,05,51,992.45
2015,12,09,05,52,992.45
2015,12,09,05,53,992.48
2015,12,09,05,54,992.59
2015,12,09,05,55,992.72
2015,12,09,05,56,992.87
2015,12,09,05,57,993.07
2015,12,09,05,58,993.26
2015,12,09,05,59,993.26
2015,12,09,06,00,993.14
2015,12,09,06,01,993.13
2015,12,09,06,02,993.36
2015,12,09,06,03,993.26
2015,12,09,06,04,993.19
2015,12,09,06,05,993.16
2015,12,09,06,06,993.30
2015,12,09,06,07,993.41
2015,12,09,06,08,993.60
2015,12,09,06,09,993.26
2015,12,09,06,10,993.26
2015,12,09,06,11,993.36
2015,12,09,06,12,993.68
2015,12,09,06,13,993.60
2015,12,09,06,14,993.86
2015,12,09,06,15,993.43
2015,12,09,06,16,993.37
2015,12,09,06,17,993.57
2015,12,09,06,18,993.67
2015,12,09,06,19,993.63
2015,12,09,06,20,993.50
2015,12,09,06,21,993.67
2015,12,09,06,22,993.60
2015,12,09,06,23,993.53
2015,12,09,06,24,993.43
2015,12,09,06,25,993.50
2015,12,09,06,26,993.60
2015,12,09,06,27,993.70
2015,12,09,06,28,993.96
2015,12,09,06,29,993.78
2015,12,09,06,30,993.91
2015,12,09,06,31,993.80
2015,12,09,06,32,993.60
2015,12,09,06,33,993.75
2015,12,09,06,34,994.01
2015,12,09,06,35,994.31
2015,12,09,06,36,994.01
2015,12,09,06,37,994.01
2015,12,09,06,38,994.13
2015,12,09,06,39,994.35
2015,12,09,06,40,994.28
2015,12,09,06,41,994.24
2015,12,09,06,42,994.28
2015,12,09,06,43,994.28
2015,12,09,06,44,994.35
2015,12,09,06,45,994.40
2015,12,09,06,46,994.21
2015,12,09,06,47,994.21
2015,12,09,06,48,994.21
2015,12,09,06,49,994.52
2015,12,09,06,50,994.68
2015,12,09,06,51,994.65
2015,12,09,06,52,994.45
2015,12,09,06,53,994.85
2015,12,09,06,54,994.75
2015,12,09,06,55,994.52
2015,12,09,06,56,994.79
2015,12,09,06,57,994.82
2015,12,09,06,58,994.92
2015,12,09,06,59,994.96
2015,12,09,07,00,994.99
2015,12,09,07,01,994.96
2015,12,09,07,02,994.61
2015,12,09,07,03,994.48
2015,12,09,07,04,995.12
2015,12,09,07,05,994.85
2015,12,09,07,06,994.79
2015,12,09,07,07,994.79
2015,12,09,07,08,994.79
2015,12,09,07,09,995.09
2015,12,09,07,10,995.23
2015,12,09,07,11,995.04
2015,12,09,07,12,995.56
2015,12,09,07,13,995.80
2015,12,09,07,14,995.78
2015,12,09,07,15,996.01
2015,12,09,07,16,995.70
2015,12,09,07,17,995.16
2015,12,09,07,18,995.36
2015,12,09,07,19,995.90
2015,12,09,07,20,995.53
2015,12,09,07,21,995.53
2015,12,09,07,22,995.53
2015,12,09,07,23,995.60
2015,12,09,07,24,995.64
2015,12,09,07,25,995.77
2015,12,09,07,26,996.04
2015,12,09,07,27,995.97
2015,12,09,07,28,995.97
2015,12,09,07,29,995.97
2015,12,09,07,30,996.01
2015,12,09,07,31,995.77
2015,12,09,07,32,995.73
2015,12,09,07,33,996.24
2015,12,09,07,34,996.45
2015,12,09,07,35,996.65
2015,12,09,07,36,996.41
2015,12,09,07,37,996.48
2015,12,09,07,38,996.34
2015,12,09,07,39,996.21
2015,12,09,07,40,996.17
2015,12,09,07,41,996.11
2015,12,09,07,42,996.17
2015,12,09,07,43,996.31
2015,12,09,07,44,996.38
2015,12,09,07,45,996.55
2015,12,09,07,46,996.09
2015,12,09,07,47,996.07
2015,12,09,07,48,996.78
2015,12,09,07,49,996.72
2015,12,09,07,50,996.51
2015,12,09,07,51,996.71
2015,12,09,07,52,996.72
2015,12,09,07,53,996.82
2015,12,09,07,54,996.72
2015,12,09,07,55,996.59
2015,12,09,07,56,996.75
2015,12,09,07,57,996.75
2015,12,09,07,58,996.73
2015,12,09,07,59,996.89
2015,12,09,08,00,997.31
2015,12,09,08,01,997.13
2015,12,09,08,02,997.16
2015,12,09,08,03,996.95
2015,12,09,08,04,997.12
2015,12,09,08,05,997.19
2015,12,09,08,06,997.26
2015,12,09,08,07,997.19
2015,12,09,08,08,997.26
2015,12,09,08,09,997.22
2015,12,09,08,10,997.12
2015,12,09,08,11,997.70
2015,12,09,08,12,997.22
2015,12,09,08,13,997.52
2015,12,09,08,14,997.53
2015,12,09,08,15,997.60
2015,12,09,08,16,997.53
2015,12,09,08,17,997.50
2015,12,09,08,18,997.87
2015,12,09,08,19,997.63
2015,12,09,08,20,997.53
2015,12,09,08,21,997.56
2015,12,09,08,22,997.76
2015,12,09,08,23,997.83
2015,12,09,08,24,997.80
2015,12,09,08,25,997.90
2015,12,09,08,26,998.17
2015,12,09,08,27,998.04
2015,12,09,08,28,998.04
2015,12,09,08,29,998.00
2015,12,09,08,30,997.94
2015,12,09,08,31,998.27
2015,12,09,08,32,998.24
2015,12,09,08,33,998.24
2015,12,09,08,34,998.21
2015,12,09,08,35,998.24
2015,12,09,08,36,998.21
2015,12,09,08,37,998.17
2015,12,09,08,38,998.24
2015,12,09,08,39,998.24
2015,12,09,08,40,998.21
2015,12,09,08,41,998.21
2015,12,09,08,42,998.17
2015,12,09,08,43,998.24
2015,12,09,08,44,998.31
2015,12,09,08,45,998.38
2015,12,09,08,46,998.44
2015,12,09,08,47,998.51
2015,12,09,08,48,998.54
2015,12,09,08,49,998.54
2015,12,09,08,50,998.54
2015,12,09,08,51,998.51
2015,12,09,08,52,998.54
2015,12,09,08,53,998.54
2015,12,09,08,54,998.61
2015,12,09,08,55,998.65
2015,12,09,08,56,998.61
2015,12,09,08,57,998.75
2015,12,09,08,58,998.82
2015,12,09,08,59,999.02
2015,12,09,09,00,998.99
2015,12,09,09,01,998.99
2015,12,09,09,02,998.95
2015,12,09,09,03,998.88
2015,12,09,09,04,999.15
2015,12,09,09,05,999.26
2015,12,09,09,06,999.22
2015,12,09,09,07,999.29
2015,12,09,09,08,999.32
2015,12,09,09,09,999.29
2015,12,09,09,10,999.16
2015,12,09,09,11,999.22
2015,12,09,09,12,999.12
2015,12,09,09,13,999.22
2015,12,09,09,14,999.19
2015,12,09,09,15,999.26
2015,12,09,09,16,999.26
2015,12,09,09,17,999.19
2015,12,09,09,18,999.26
2015,12,09,09,19,999.29
2015,12,09,09,20,999.26
2015,12,09,09,21,999.39
2015,12,09,09,22,999.39
2015,12,09,09,23,999.46
2015,12,09,09,24,999.49
2015,12,09,09,25,999.53
2015,12,09,09,26,999.46
2015,12,09,09,27,999.49
2015,12,09,09,28,999.59
2015,12,09,09,29,999.63
2015,12,09,09,30,999.66
2015,12,09,09,31,999.76
2015,12,09,09,32,999.80
2015,12,09,09,33,999.90
2015,12,09,09,34,999.97
2015,12,09,09,35,1000.07
2015,12,09,09,36,1000.10
2015,12,09,09,37,1000.20
2015,12,09,09,38,1000.27
2015,12,09,09,39,1000.24
2015,12,09,09,40,1000.27
2015,12,09,09,41,1000.24
2015,12,09,09,42,1000.17
2015,12,09,09,43,1000.24
2015,12,09,09,44,1000.17
2015,12,09,09,45,1000.17
2015,12,09,09,46,1000.15
2015,12,09,09,47,1000.25
2015,12,09,09,48,1000.37
2015,12,09,09,49,1000.48
2015,12,09,09,50,1000.58
2015,12,09,09,51,1000.58
2015,12,09,09,52,1000.71
2015,12,09,09,53,1000.58
2015,12,09,09,54,1000.58
2015,12,09,09,55,1000.81
2015,12,09,09,56,1000.76
2015,12,09,09,57,1000.88
2015,12,09,09,58,1000.95
2015,12,09,09,59,1000.95
2015,12,09,10,00,1001.02
2015,12,09,10,01,1001.08
2015,12,09,10,02,1001.15
2015,12,09,10,03,1001.12
2015,12,09,10,04,1001.12
2015,12,09,10,05,1001.19
2015,12,09,10,06,1001.32
2015,12,09,10,07,1001.39
2015,12,09,10,08,1001.36
2015,12,09,10,09,1001.36
2015,12,09,10,10,1001.42
2015,12,09,10,11,1001.42
2015,12,09,10,12,1001.49
2015,12,09,10,13,1001.49
2015,12,09,10,14,1001.59
2015,12,09,10,15,1001.56
2015,12,09,10,16,1001.52
2015,12,09,10,17,1001.57
2015,12,09,10,18,1001.69
2015,12,09,10,19,1001.63
2015,12,09,10,20,1001.66
2015,12,09,10,21,1001.56
2015,12,09,10,22,1001.66
2015,12,09,10,23,1001.73
2015,12,09,10,24,1001.76
2015,12,09,10,25,1001.80
2015,12,09,10,26,1001.73
2015,12,09,10,27,1001.69
2015,12,09,10,28,1001.76
2015,12,09,10,29,1001.83
2015,12,09,10,30,1002.00
2015,12,09,10,31,1001.97
2015,12,09,10,32,1002.00
2015,12,09,10,33,1001.90
2015,12,09,10,34,1002.00
2015,12,09,10,35,1002.20
2015,12,09,10,36,1002.07
2015,12,09,10,37,1002.24
2015,12,09,10,38,1002.34
2015,12,09,10,39,1002.30
2015,12,09,10,40,1002.34
2015,12,09,10,41,1002.34
2015,12,09,10,42,1002.27
2015,12,09,10,43,1002.20
2015,12,09,10,44,1002.30
2015,12,09,10,45,1002.51
2015,12,09,10,46,1002.54
2015,12,09,10,47,1002.51
2015,12,09,10,48,1002.47
2015,12,09,10,49,1002.37
2015,12,09,10,50,1002.41
2015,12,09,10,51,1002.51
2015,12,09,10,52,1002.57
2015,12,09,10,53,1002.61
2015,12,09,10,54,1002.68
2015,12,09,10,55,1002.57
2015,12,09,10,56,1002.57
2015,12,09,10,57,1002.51
2015,12,09,10,58,1002.64
2015,12,09,10,59,1002.68
2015,12,09,11,00,1002.74
2015,12,09,11,01,1002.81
2015,12,09,11,02,1002.85
2015,12,09,11,03,1002.91
2015,12,09,11,04,1003.01
2015,12,09,11,05,1003.12
2015,12,09,11,06,1003.12
2015,12,09,11,07,1003.18
2015,12,09,11,08,1003.25
2015,12,09,11,09,1003.18
2015,12,09,11,10,1003.15
2015,12,09,11,11,1003.25
2015,12,09,11,12,1003.18
2015,12,09,11,13,1003.31
2015,12,09,11,14,1003.32
2015,12,09,11,15,1003.42
2015,12,09,11,16,1003.15
2015,12,09,11,17,1003.25
2015,12,09,11,18,1003.18
2015,12,09,11,19,1003.22
2015,12,09,11,20,1003.18
2015,12,09,11,21,1003.31
2015,12,09,11,22,1003.39
2015,12,09,11,23,1003.39
2015,12,09,11,24,1003.35
2015,12,09,11,25,1003.25
2015,12,09,11,26,1003.39
2015,12,09,11,27,1003.42
2015,12,09,11,28,1003.39
2015,12,09,11,29,1003.56
2015,12,09,11,30,1003.62
2015,12,09,11,31,1003.46
2015,12,09,11,32,1003.49
2015,12,09,11,33,1003.56
2015,12,09,11,34,1003.62
2015,12,09,11,35,1003.69
2015,12,09,11,36,1003.66
2015,12,09,11,37,1003.59
2015,12,09,11,38,1003.59
2015,12,09,11,39,1003.66
2015,12,09,11,40,1003.73
2015,12,09,11,41,1003.73
2015,12,09,11,42,1003.76
2015,12,09,11,43,1003.76
2015,12,09,11,44,1003.79
2015,12,09,11,45,1003.73
2015,12,09,11,46,1003.73
2015,12,09,11,47,1003.73
2015,12,09,11,48,1003.79
2015,12,09,11,49,1003.89
2015,12,09,11,50,1003.93
2015,12,09,11,51,1003.96
2015,12,09,11,52,1003.96
2015,12,09,11,53,1003.96
2015,12,09,11,54,1004.00
2015,12,09,11,55,1004.03
2015,12,09,11,56,1004.06
2015,12,09,11,57,1004.10
2015,12,09,11,58,1004.00
2015,12,09,11,59,1004.06
2015,12,09,12,00,1004.10
2015,12,09,12,01,1004.06
2015,12,09,12,02,1004.06
2015,12,09,12,03,1004.03
2015,12,09,12,04,1003.96
2015,12,09,12,05,1004.00
2015,12,09,12,06,1004.00
2015,12,09,12,07,1004.00
2015,12,09,12,08,1004.00
2015,12,09,12,09,1004.06
2015,12,09,12,10,1004.06
2015,12,09,12,11,1004.06
2015,12,09,12,12,1004.10
2015,12,09,12,13,1004.10
2015,12,09,12,14,1004.23
2015,12,09,12,15,1004.30
2015,12,09,12,16,1004.34
2015,12,09,12,17,1004.30
2015,12,09,12,18,1004.34
2015,12,09,12,19,1004.30
2015,12,09,12,20,1004.30
2015,12,09,12,21,1004.37
2015,12,09,12,22,1004.37
2015,12,09,12,23,1004.34
2015,12,09,12,24,1004.37
2015,12,09,12,25,1004.40
2015,12,09,12,26,1004.47
2015,12,09,12,27,1004.50
2015,12,09,12,28,1004.54
2015,12,09,12,29,1004.54
2015,12,09,12,30,1004.57
2015,12,09,12,31,1004.57
2015,12,09,12,32,1004.67
2015,12,09,12,33,1004.64
2015,12,09,12,34,1004.64
2015,12,09,12,35,1004.57
2015,12,09,12,36,1004.74
2015,12,09,12,37,1004.71
2015,12,09,12,38,1004.74
2015,12,09,12,39,1004.81
2015,12,09,12,40,1004.81
2015,12,09,12,41,1004.88
2015,12,09,12,42,1004.84
2015,12,09,12,43,1004.78
2015,12,09,12,44,1004.84
2015,12,09,12,45,1004.84
2015,12,09,12,46,1004.91
2015,12,09,12,47,1004.88
2015,12,09,12,48,1004.88
2015,12,09,12,49,1004.98
2015,12,09,12,50,1004.95
2015,12,09,12,51,1004.95
2015,12,09,12,52,1004.95
2015,12,09,12,53,1004.91
2015,12,09,12,54,1004.98
2015,12,09,12,55,1004.98
2015,12,09,12,56,1004.91
2015,12,09,12,57,1004.95
2015,12,09,12,58,1004.95
2015,12,09,12,59,1004.98
2015,12,09,13,00,1005.08
2015,12,09,13,01,1005.11
2015,12,09,13,02,1005.05
2015,12,09,13,03,1005.05
2015,12,09,13,04,1005.01
2015,12,09,13,05,1005.11
2015,12,09,13,06,1005.11
2015,12,09,13,07,1005.11
2015,12,09,13,08,1005.18
2015,12,09,13,09,1005.22
2015,12,09,13,10,1005.18
2015,12,09,13,11,1005.18
2015,12,09,13,12,1005.22
2015,12,09,13,13,1005.22
2015,12,09,13,14,1005.22
2015,12,09,13,15,1005.15
2015,12,09,13,16,1005.15
2015,12,09,13,17,1005.08
2015,12,09,13,18,1005.08
2015,12,09,13,19,1005.08
2015,12,09,13,20,1005.05
2015,12,09,13,21,1005.01
2015,12,09,13,22,1005.08
2015,12,09,13,23,1005.11
2015,12,09,13,24,1005.08
2015,12,09,13,25,1005.08
2015,12,09,13,26,1005.08
2015,12,09,13,27,1005.08
2015,12,09,13,28,1005.11
2015,12,09,13,29,1005.11
2015,12,09,13,30,1005.15
2015,12,09,13,31,1005.15
2015,12,09,13,32,1005.11
2015,12,09,13,33,1005.11
2015,12,09,13,34,1005.08
2015,12,09,13,35,1005.11
2015,12,09,13,36,1005.11
2015,12,09,13,37,1005.15
2015,12,09,13,38,1005.15
2015,12,09,13,39,1005.18
2015,12,09,13,40,1005.18
2015,12,09,13,41,1005.18
2015,12,09,13,42,1005.22
2015,12,09,13,43,1005.18
2015,12,09,13,44,1005.18
2015,12,09,13,45,1005.25
2015,12,09,13,46,1005.22
2015,12,09,13,47,1005.28
2015,12,09,13,48,1005.32
2015,12,09,13,49,1005.32
2015,12,09,13,50,1005.35
2015,12,09,13,51,1005.32
2015,12,09,13,52,1005.39
2015,12,09,13,53,1005.45
2015,12,09,13,54,1005.52
2015,12,09,13,55,1005.59
2015,12,09,13,56,1005.62
2015,12,09,13,57,1005.62
2015,12,09,13,58,1005.62
2015,12,09,13,59,1005.66
2015,12,09,14,00,1005.72
2015,12,09,14,01,1005.76
2015,12,09,14,02,1005.83
2015,12,09,14,03,1005.86
2015,12,09,14,04,1005.89
2015,12,09,14,05,1005.93
2015,12,09,14,06,1005.96
2015,12,09,14,07,1005.96
2015,12,09,14,08,1005.96
2015,12,09,14,09,1005.93
2015,12,09,14,10,1005.89
2015,12,09,14,11,1005.83
2015,12,09,14,12,1005.83
2015,12,09,14,13,1005.83
2015,12,09,14,14,1005.79
2015,12,09,14,15,1005.79
2015,12,09,14,16,1005.76
2015,12,09,14,17,1005.76
2015,12,09,14,18,1005.76
2015,12,09,14,19,1005.76
2015,12,09,14,20,1005.83
2015,12,09,14,21,1005.83
2015,12,09,14,22,1005.89
2015,12,09,14,23,1005.89
2015,12,09,14,24,1005.89
2015,12,09,14,25,1005.96
2015,12,09,14,26,1005.99
2015,12,09,14,27,1006.03
2015,12,09,14,28,1006.03
2015,12,09,14,29,1006.03
2015,12,09,14,30,1005.96
2015,12,09,14,31,1006.06
2015,12,09,14,32,1006.03
2015,12,09,14,33,1006.06
2015,12,09,14,34,1006.06
2015,12,09,14,35,1006.13
2015,12,09,14,36,1006.13
2015,12,09,14,37,1006.10
2015,12,09,14,38,1006.10
2015,12,09,14,39,1006.13
2015,12,09,14,40,1006.10
2015,12,09,14,41,1006.13
2015,12,09,14,42,1006.13
2015,12,09,14,43,1006.20
2015,12,09,14,44,1006.16
2015,12,09,14,45,1006.16
2015,12,09,14,46,1006.13
2015,12,09,14,47,1006.06
2015,12,09,14,48,1006.06
2015,12,09,14,49,1006.06
2015,12,09,14,50,1006.06
2015,12,09,14,51,1006.06
2015,12,09,14,52,1006.06
2015,12,09,14,53,1006.10
2015,12,09,14,54,1006.06
2015,12,09,14,55,1006.10
2015,12,09,14,56,1006.13
2015,12,09,14,57,1006.13
2015,12,09,14,58,1006.13
2015,12,09,14,59,1006.16
2015,12,09,15,00,1006.16
2015,12,09,15,01,1006.20
2015,12,09,15,02,1006.20
2015,12,09,15,03,1006.23
2015,12,09,15,04,1006.16
2015,12,09,15,05,1006.16
2015,12,09,15,06,1006.20
2015,12,09,15,07,1006.20
2015,12,09,15,08,1006.16
2015,12,09,15,09,1006.16
2015,12,09,15,10,1006.16
2015,12,09,15,11,1006.10
2015,12,09,15,12,1006.06
2015,12,09,15,13,1006.06
2015,12,09,15,14,1005.99
2015,12,09,15,15,1005.96
2015,12,09,15,16,1005.89
2015,12,09,15,17,1005.83
2015,12,09,15,18,1005.86
2015,12,09,15,19,1005.83
2015,12,09,15,20,1005.86
2015,12,09,15,21,1005.83
2015,12,09,15,22,1005.86
2015,12,09,15,23,1005.86
2015,12,09,15,24,1005.93
2015,12,09,15,25,1005.93
2015,12,09,15,26,1005.96
2015,12,09,15,27,1005.96
2015,12,09,15,28,1005.93
2015,12,09,15,29,1005.93
2015,12,09,15,30,1005.89
2015,12,09,15,31,1005.86
2015,12,09,15,32,1005.86
2015,12,09,15,33,1005.83
2015,12,09,15,34,1005.79
2015,12,09,15,35,1005.79
2015,12,09,15,36,1005.83
2015,12,09,15,37,1005.83
2015,12,09,15,38,1005.79
2015,12,09,15,39,1005.86
2015,12,09,15,40,1005.89
2015,12,09,15,41,1005.89
2015,12,09,15,42,1005.93
2015,12,09,15,43,1005.93
2015,12,09,15,44,1006.03
2015,12,09,15,45,1005.99
2015,12,09,15,46,1005.99
2015,12,09,15,47,1005.93
2015,12,09,15,48,1005.99
2015,12,09,15,49,1005.96
2015,12,09,15,50,1005.99
2015,12,09,15,51,1005.99
2015,12,09,15,52,1005.99
2015,12,09,15,53,1006.06
2015,12,09,15,54,1006.06
2015,12,09,15,55,1006.10
2015,12,09,15,56,1006.13
2015,12,09,15,57,1006.10
2015,12,09,15,58,1006.10
2015,12,09,15,59,1006.13
2015,12,09,16,00,1006.10
2015,12,09,16,01,1006.10
2015,12,09,16,02,1006.06
2015,12,09,16,03,1006.13
2015,12,09,16,04,1006.10
2015,12,09,16,05,1006.13
2015,12,09,16,06,1006.16
2015,12,09,16,07,1006.20
2015,12,09,16,08,1006.16
2015,12,09,16,09,1006.16
2015,12,09,16,10,1006.16
2015,12,09,16,11,1006.16
2015,12,09,16,12,1006.20
2015,12,09,16,13,1006.20
2015,12,09,16,14,1006.20
2015,12,09,16,15,1006.20
2015,12,09,16,16,1006.16
2015,12,09,16,17,1006.20
2015,12,09,16,18,1006.20
2015,12,09,16,19,1006.20